When you browse on this site, cookies collect data to enhance your experience and personalize the content and advertising you see.
Visit our Privacy Policy to learn more. By continuing to use the site, you agree to this use of cookies and data.

Stündliche Wetter Amvrosiewka

Heute, 20 September, Sonntag

Zeit Temperatur Niederschläge Wind Luftdruck Luftfeuchtigkeit
00:00 +12°C° 0 mm 2 m/S 749 mmHg 52%
01:00 +12°C° 0 mm 2 m/S 749 mmHg 55%
02:00 +10°C° 0 mm 2 m/S 749 mmHg 58%
03:00 +10°C° 0 mm 2 m/S 749 mmHg 61%
04:00 +10°C° 0 mm 2 m/S 749 mmHg 62%
05:00 +9°C° 0 mm 2 m/S 749 mmHg 64%
06:00 +9°C° 0 mm 2 m/S 749 mmHg 65%
07:00 +12°C° 0 mm 2 m/S 749 mmHg 57%
08:00 +13°C° 0 mm 3 m/S 749 mmHg 50%
09:00 +15°C° 0 mm 4 m/S 749 mmHg 42%
10:00 +18°C° 0 mm 4 m/S 749 mmHg 37%
11:00 +20°C° 0 mm 5 m/S 749 mmHg 33%
12:00 +21°C° 0 mm 5 m/S 749 mmHg 29%
13:00 +22°C° 0 mm 5 m/S 749 mmHg 28%
14:00 +22°C° 0 mm 5 m/S 749 mmHg 27%
15:00 +22°C° 0 mm 6 m/S 749 mmHg 26%
16:00 +21°C° 0 mm 5 m/S 749 mmHg 27%
17:00 +20°C° 0 mm 4 m/S 749 mmHg 29%
18:00 +19°C° 0 mm 3 m/S 749 mmHg 30%
19:00 +17°C° 0 mm 3 m/S 750 mmHg 36%
20:00 +14°C° 0 mm 3 m/S 751 mmHg 41%
21:00 +12°C° 0 mm 3 m/S 751 mmHg 46%
22:00 +11°C° 0 mm 3 m/S 751 mmHg 49%
23:00 +11°C° 0 mm 3 m/S 752 mmHg 51%

Morgen, 21 September, Montag

Zeit Temperatur Niederschläge Wind Luftdruck Luftfeuchtigkeit
00:00 +10°C° 0 mm 3 m/S 752 mmHg 54%
01:00 +9°C° 0 mm 3 m/S 752 mmHg 55%
02:00 +9°C° 0 mm 3 m/S 752 mmHg 57%
03:00 +8°C° 0 mm 3 m/S 752 mmHg 58%
04:00 +8°C° 0 mm 2 m/S 753 mmHg 59%
05:00 +7°C° 0 mm 2 m/S 753 mmHg 60%
06:00 +8°C° 0 mm 1 m/S 753 mmHg 61%
07:00 +9°C° 0 mm 2 m/S 753 mmHg 53%
08:00 +13°C° 0 mm 2 m/S 753 mmHg 45%
09:00 +15°C° 0 mm 2 m/S 754 mmHg 37%
10:00 +17°C° 0 mm 2 m/S 754 mmHg 32%
11:00 +19°C° 0 mm 2 m/S 753 mmHg 28%
12:00 +21°C° 0 mm 1 m/S 753 mmHg 23%
13:00 +21°C° 0 mm 2 m/S 753 mmHg 21%
14:00 +23°C° 0 mm 2 m/S 753 mmHg 19%
15:00 +23°C° 0 mm 2 m/S 752 mmHg 17%
16:00 +21°C° 0 mm 2 m/S 752 mmHg 18%
17:00 +20°C° 0 mm 2 m/S 752 mmHg 20%
18:00 +20°C° 0 mm 1 m/S 752 mmHg 21%
19:00 +17°C° 0 mm 2 m/S 752 mmHg 24%
20:00 +15°C° 0 mm 2 m/S 752 mmHg 26%
21:00 +14°C° 0 mm 2 m/S 752 mmHg 29%
22:00 +13°C° 0 mm 2 m/S 752 mmHg 30%
23:00 +13°C° 0 mm 2 m/S 752 mmHg 31%

übermorgen, 22 September, Dienstag

Zeit Temperatur Niederschläge Wind Luftdruck Luftfeuchtigkeit
00:00 +12°C° 0 mm 2 m/S 752 mmHg 32%
01:00 +12°C° 0 mm 1 m/S 752 mmHg 33%
02:00 +11°C° 0 mm 1 m/S 752 mmHg 34%
03:00 +11°C° 0 mm 1 m/S 752 mmHg 35%
04:00 +10°C° 0 mm 1 m/S 752 mmHg 35%
05:00 +10°C° 0 mm 1 m/S 752 mmHg 36%
06:00 +10°C° 0 mm 1 m/S 752 mmHg 37%
07:00 +12°C° 0 mm 2 m/S 752 mmHg 32%
08:00 +15°C° 0 mm 2 m/S 753 mmHg 28%
09:00 +18°C° 0 mm 2 m/S 753 mmHg 23%
10:00 +19°C° 0 mm 2 m/S 753 mmHg 21%
11:00 +21°C° 0 mm 2 m/S 753 mmHg 18%
12:00 +24°C° 0 mm 2 m/S 753 mmHg 15%
13:00 +25°C° 0 mm 2 m/S 752 mmHg 14%
14:00 +26°C° 0 mm 2 m/S 752 mmHg 13%
15:00 +26°C° 0 mm 2 m/S 752 mmHg 12%
16:00 +25°C° 0 mm 2 m/S 752 mmHg 13%
17:00 +23°C° 0 mm 1 m/S 751 mmHg 15%
18:00 +22°C° 0 mm 1 m/S 751 mmHg 16%
19:00 +20°C° 0 mm 1 m/S 751 mmHg 19%
20:00 +18°C° 0 mm 2 m/S 751 mmHg 21%
21:00 +16°C° 0 mm 2 m/S 752 mmHg 23%
22:00 +15°C° 0 mm 2 m/S 751 mmHg 25%
23:00 +14°C° 0 mm 2 m/S 751 mmHg 26%

23 September, Mittwoch

Zeit Temperatur Niederschläge Wind Luftdruck Luftfeuchtigkeit
00:00 +14°C° 0 mm 2 m/S 751 mmHg 28%
01:00 +13°C° 0 mm 2 m/S 751 mmHg 29%
02:00 +13°C° 0 mm 2 m/S 751 mmHg 30%
03:00 +12°C° 0 mm 2 m/S 751 mmHg 31%
04:00 +12°C° 0 mm 2 m/S 751 mmHg 31%
05:00 +12°C° 0 mm 2 m/S 751 mmHg 32%
06:00 +12°C° 0 mm 2 m/S 751 mmHg 32%
07:00 +14°C° 0 mm 2 m/S 751 mmHg 28%
08:00 +17°C° 0 mm 2 m/S 751 mmHg 24%
09:00 +20°C° 0 mm 3 m/S 751 mmHg 21%
10:00 +22°C° 0 mm 3 m/S 751 mmHg 18%
11:00 +25°C° 0 mm 3 m/S 751 mmHg 16%
12:00 +27°C° 0 mm 3 m/S 751 mmHg 14%
13:00 +27°C° 0 mm 3 m/S 750 mmHg 13%
14:00 +28°C° 0 mm 3 m/S 750 mmHg 12%
15:00 +29°C° 0 mm 3 m/S 749 mmHg 11%
16:00 +27°C° 0 mm 3 m/S 749 mmHg 13%
17:00 +26°C° 0 mm 3 m/S 749 mmHg 14%
18:00 +24°C° 0 mm 2 m/S 748 mmHg 16%
19:00 +21°C° 0 mm 3 m/S 748 mmHg 18%
20:00 +19°C° 0 mm 3 m/S 748 mmHg 20%
21:00 +18°C° 0 mm 3 m/S 748 mmHg 23%
22:00 +17°C° 0 mm 3 m/S 748 mmHg 25%
23:00 +16°C° 0 mm 3 m/S 748 mmHg 27%

24 September, Donnerstag

Zeit Temperatur Niederschläge Wind Luftdruck Luftfeuchtigkeit
00:00 +16°C° 0 mm 3 m/S 748 mmHg 29%
01:00 +14°C° 0 mm 3 m/S 748 mmHg 29%
02:00 +14°C° 0 mm 3 m/S 748 mmHg 30%
03:00 +13°C° 0 mm 3 m/S 748 mmHg 31%
04:00 +13°C° 0 mm 3 m/S 748 mmHg 32%
05:00 +12°C° 0 mm 3 m/S 748 mmHg 33%
06:00 +12°C° 0 mm 3 m/S 748 mmHg 35%
07:00 +14°C° 0 mm 3 m/S 748 mmHg 32%
08:00 +18°C° 0 mm 3 m/S 748 mmHg 30%
09:00 +20°C° 0 mm 4 m/S 749 mmHg 28%
10:00 +22°C° 0 mm 4 m/S 748 mmHg 24%
11:00 +26°C° 0 mm 5 m/S 748 mmHg 21%
12:00 +28°C° 0 mm 5 m/S 748 mmHg 18%
13:00 +28°C° 0 mm 5 m/S 748 mmHg 17%
14:00 +29°C° 0 mm 5 m/S 748 mmHg 17%
15:00 +29°C° 0 mm 5 m/S 747 mmHg 17%
16:00 +28°C° 0 mm 4 m/S 747 mmHg 20%
17:00 +26°C° 0 mm 4 m/S 747 mmHg 23%
18:00 +25°C° 0 mm 3 m/S 747 mmHg 26%
19:00 +22°C° 0 mm 3 m/S 747 mmHg 27%
20:00 +21°C° 0 mm 4 m/S 747 mmHg 29%
21:00 +19°C° 0 mm 4 m/S 747 mmHg 30%
22:00 +18°C° 0 mm 4 m/S 747 mmHg 32%
23:00 +18°C° 0 mm 4 m/S 746 mmHg 34%

25 September, Freitag

Zeit Temperatur Niederschläge Wind Luftdruck Luftfeuchtigkeit
00:00 +17°C° 0 mm 4 m/S 746 mmHg 35%
01:00 +17°C° 0 mm 4 m/S 746 mmHg 37%
02:00 +17°C° 0 mm 4 m/S 746 mmHg 39%
03:00 +15°C° 0 mm 4 m/S 746 mmHg 41%
04:00 +15°C° 0 mm 4 m/S 746 mmHg 42%
05:00 +15°C° 0 mm 4 m/S 746 mmHg 43%
06:00 +15°C° 0 mm 5 m/S 746 mmHg 44%
07:00 +16°C° 0 mm 5 m/S 746 mmHg 41%
08:00 +19°C° 0 mm 6 m/S 746 mmHg 39%
09:00 +21°C° 0 mm 6 m/S 746 mmHg 37%
10:00 +22°C° 0 mm 7 m/S 745 mmHg 33%
11:00 +24°C° 0 mm 8 m/S 745 mmHg 28%
12:00 +27°C° 0 mm 8 m/S 745 mmHg 24%
13:00 +28°C° 0 mm 8 m/S 745 mmHg 23%
14:00 +29°C° 0 mm 8 m/S 744 mmHg 22%
15:00 +30°C° 0 mm 7 m/S 744 mmHg 22%
16:00 +28°C° 0 mm 6 m/S 744 mmHg 23%
17:00 +27°C° 0 mm 5 m/S 743 mmHg 25%
18:00 +26°C° 0 mm 4 m/S 743 mmHg 27%
19:00 +25°C° 0 mm 4 m/S 743 mmHg 28%
20:00 +23°C° 0 mm 5 m/S 743 mmHg 29%
21:00 +21°C° 0 mm 5 m/S 743 mmHg 31%
22:00 +21°C° 0 mm 6 m/S 743 mmHg 31%
23:00 +21°C° 0 mm 6 m/S 742 mmHg 31%
Mehr zeigen